Mansfield, OH

6:29 AM EST on February 20, 2017 (GMT -0500)
Mansfield Lahm Regional

Weather History for KMFD - September, 2012

Change the Weather History Date:

Friday, September 21, 2012

  Actual Average Record
Temperature  
Mean Temperature 60 °F 61 °F  
Max Temperature 69 °F 71 °F 91 °F (1931)
Min Temperature 50 °F 51 °F 24 °F (1956)
Degree Days  
Heating Degree Days 5 5  
Month to date heating degree days 65 60  
Since 1 July heating degree days 69 85  
Cooling Degree Days 0 1  
Month to date cooling degree days 82 55  
Year to date cooling degree days 947 617  
Growing Degree Days 10 (Base 50)    
Moisture  
Dew Point 49 °F    
Average Humidity 68    
Maximum Humidity 100    
Minimum Humidity 35    
Precipitation  
Precipitation 1.14 in 0.11 in 1.55 in (1950)
Month to date precipitation 4.96 2.37  
Year to date precipitation 26.43 33.20  
Snow  
Snow 0.00 in 0.00 in - ()
Month to date snowfall 0.0 0.0  
Since 1 July snowfall 0.0 0.0  
Since 1 September snowfall 0.0 0.0  
Snow Depth 0.00 in    
Sea Level Pressure  
Sea Level Pressure 29.90 in    
Wind  
Wind Speed 7 mph (WSW)    
Max Wind Speed 16 mph    
Max Gust Speed 22 mph    
Visibility 7 miles    
Events Rain , Thunderstorm    
T = Trace of Precipitation, MM = Missing Value Source: NWS Daily Summary

Daily Weather History Graph

Daily Weather History Graph

Search for Another Location

Airport or City:

Trip Planner

Search our weather history database for the weather conditions in past years. The results will help you decide how hot, cold, wet, or windy it might be!

Date:

Astronomy

Sep. 21, 2012 Rise Set
Actual Time 7:17 AM EDT 7:28 PM EDT
Civil Twilight 6:49 AM EDT 7:55 PM EDT
Nautical Twilight 6:17 AM EDT 8:27 PM EDT
Astronomical Twilight 5:44 AM EDT 9:00 PM EDT
Moon 1:39 PM EDT (9/21) 11:25 PM EDT (9/21)
Length of Visible Light 13h 05m
Length of Day
12h 11m
Waxing Crescent, 37% of the Moon is Illuminated
Sep 21
Waxing Crescent
Sep 22
First Quarter
Sep 29
Full
Oct 8
Last Quarter
Oct 15
New

Hourly Weather History & Observations

Time (EDT) Temp. Dew Point Humidity Pressure Visibility Wind Dir Wind Speed Gust Speed Precip Events Conditions
12:52 AM 62.1 °F 52.0 °F 70% 29.93 in 10.0 mi SW 4.6 mph - N/A   Overcast
1:52 AM 59.0 °F 52.0 °F 78% 29.94 in 10.0 mi SSW 5.8 mph - N/A   Mostly Cloudy
2:52 AM 57.9 °F 52.0 °F 81% 29.94 in 10.0 mi South 3.5 mph - N/A   Partly Cloudy
3:52 AM 55.0 °F 52.0 °F 89% 29.94 in 10.0 mi South 5.8 mph - N/A   Clear
4:52 AM 54.0 °F 52.0 °F 93% 29.94 in 10.0 mi SW 4.6 mph - N/A   Scattered Clouds
5:52 AM 52.0 °F 51.1 °F 97% 29.94 in 10.0 mi SSW 4.6 mph - N/A   Clear
6:52 AM 52.0 °F 51.1 °F 97% 29.96 in 10.0 mi SW 4.6 mph - N/A   Clear
7:52 AM 53.1 °F 52.0 °F 96% 29.97 in 10.0 mi SW 4.6 mph - N/A   Clear
8:52 AM 59.0 °F 48.9 °F 69% 29.97 in 10.0 mi WSW 6.9 mph - N/A   Clear
9:52 AM 59.0 °F 46.9 °F 64% 29.98 in 10.0 mi SW 3.5 mph - N/A   Clear
10:52 AM 60.1 °F 46.9 °F 62% 29.98 in 10.0 mi SSW 6.9 mph - N/A   Clear
11:52 AM 63.0 °F 46.9 °F 56% 29.99 in 10.0 mi SW 6.9 mph - N/A   Clear
12:52 PM 64.0 °F 43.0 °F 46% 29.99 in 10.0 mi SW 8.1 mph - N/A   Clear
1:52 PM 69.1 °F 41.0 °F 36% 29.96 in 10.0 mi SW 12.7 mph - N/A   Clear
2:52 PM 66.9 °F 39.9 °F 37% 29.95 in 10.0 mi SSW 15.0 mph - N/A   Clear
3:52 PM 68.0 °F 39.9 °F 36% 29.93 in 10.0 mi SSW 12.7 mph - N/A   Clear
4:52 PM 66.0 °F 42.1 °F 42% 29.91 in 10.0 mi SSW 8.1 mph - N/A   Overcast
5:52 PM 62.1 °F 43.0 °F 50% 29.91 in 10.0 mi South 10.4 mph - N/A   Overcast
6:52 PM 57.2 °F 50.0 °F 77% 29.93 in 10.0 mi SW 5.8 mph - N/A Rain Light Rain
7:52 PM 55.9 °F 48.9 °F 77% 29.89 in 10.0 mi Calm Calm - 0.02 in Rain Light Rain
8:52 PM 53.1 °F 51.1 °F 93% 29.83 in 10.0 mi NE 4.6 mph - 0.00 in   Overcast
9:52 PM 52.0 °F 51.1 °F 97% 29.80 in 3.0 mi North 8.1 mph - 0.09 in Rain Heavy Rain
9:59 PM 51.8 °F 50.0 °F 94% 29.82 in 2.0 mi NW 12.7 mph - 0.09 in Rain Heavy Rain
10:03 PM 51.8 °F 50.0 °F 94% 29.83 in 3.0 mi WNW 15.0 mph - 0.13 in Rain , Thunderstorm Heavy Thunderstorms and Rain
10:28 PM 51.8 °F 50.0 °F 94% 29.82 in 3.0 mi North 11.5 mph - 0.28 in Rain Heavy Rain
10:34 PM 50.0 °F 50.0 °F 100% 29.81 in 2.5 mi NNW 12.7 mph - 0.33 in Rain , Thunderstorm Heavy Thunderstorms and Rain
10:49 PM 50.0 °F 50.0 °F 100% 29.82 in 2.5 mi NNW 12.7 mph - 0.45 in Rain , Thunderstorm Heavy Rain
10:50 PM 50.0 °F 50.0 °F 100% 29.83 in 2.5 mi NNW 11.5 mph - 0.46 in Rain , Thunderstorm Heavy Rain
10:57 PM 50.0 °F 50.0 °F 100% 29.84 in 3.0 mi NW 10.4 mph - 0.03 in Rain , Thunderstorm Heavy Rain
11:02 PM 50.0 °F 50.0 °F 100% 29.87 in 2.0 mi West 8.1 mph 17.3 mph 0.07 in Rain , Thunderstorm Heavy Rain
11:11 PM 50.0 °F 50.0 °F 100% 29.84 in 1.8 mi NW 8.1 mph - N/A Rain , Thunderstorm Heavy Rain
11:17 PM 50.0 °F 50.0 °F 100% 29.83 in 2.0 mi North 4.6 mph - 0.22 in Rain , Thunderstorm Heavy Rain
11:28 PM 50.0 °F 50.0 °F 100% 29.80 in 3.0 mi NE 6.9 mph - 0.30 in Rain Rain
11:52 PM 50.0 °F 50.0 °F 100% 29.76 in 5.0 mi East 5.8 mph - 0.37 in Rain Rain